Location: Olomouc
(49.5830°N, 17.2500°E)
Time: 04:17:45
(UTC+02:00)

ISS - Pass Details

Date: 23 May 2021
Orbit: 417 x 422 km, 51.6° (Epoch: 13 June)

Event Time Altitude Azimuth Distance (km) Brightness Sun altitude
Rises 22:10:23 0° 282° (WNW) 2,366 0.9 -11.5°
Reaches altitude 10° 22:12:30 10° 285° (WNW) 1,502 -0.1 -11.7°
Maximum altitude 22:15:51 63° 8° (N) 473 -3.3 -12.0°
Drops below altitude 10° 22:19:12 10° 90° (E) 1,503 -1.3 -12.3°
Enters shadow 22:19:24 - 91° (E) 1,582 -1.2 -12.3°
